TimeCDT,TemperatureF,Dew PointF,Humidity,Sea Level PressureIn,VisibilityMPH,Wind Direction,Wind SpeedMPH,Gust SpeedMPH,PrecipitationIn,Events,Conditions,WindDirDegrees,DateUTC
12:15 AM,34.3,27.5,76,29.97,10.0,Calm,Calm,-,N/A,,Clear,0,2012-11-01 05:15:00
12:35 AM,34.7,28.2,77,29.97,10.0,Calm,Calm,-,N/A,,Clear,0,2012-11-01 05:35:00
12:55 AM,33.8,27.0,76,29.97,10.0,Calm,Calm,-,N/A,,Clear,0,2012-11-01 05:55:00
1:15 AM,32.9,27.7,81,29.97,10.0,Calm,Calm,-,N/A,,Clear,0,2012-11-01 06:15:00
1:35 AM,33.3,29.1,85,29.97,10.0,Calm,Calm,-,N/A,,Clear,0,2012-11-01 06:35:00
1:55 AM,33.6,30.2,87,29.97,10.0,Calm,Calm,-,N/A,,Clear,0,2012-11-01 06:55:00
2:15 AM,32.9,28.4,84,29.97,10.0,Calm,Calm,-,N/A,,Clear,0,2012-11-01 07:15:00
2:35 AM,32.2,29.1,88,29.97,10.0,Calm,Calm,-,N/A,,Clear,0,2012-11-01 07:35:00
2:55 AM,33.1,29.8,88,29.98,10.0,Calm,Calm,-,N/A,,Clear,0,2012-11-01 07:55:00
3:15 AM,32.5,29.1,87,29.97,10.0,Calm,Calm,-,N/A,,Clear,0,2012-11-01 08:15:00
3:35 AM,33.1,29.7,87,29.98,10.0,Calm,Calm,-,N/A,,Clear,0,2012-11-01 08:35:00
3:55 AM,32.2,28.9,88,29.98,10.0,Calm,Calm,-,N/A,,Clear,0,2012-11-01 08:55:00
4:15 AM,31.8,28.6,88,29.97,10.0,Calm,Calm,-,N/A,,Clear,0,2012-11-01 09:15:00
4:35 AM,32.0,29.5,90,29.97,10.0,Calm,Calm,-,N/A,,Clear,0,2012-11-01 09:35:00
4:55 AM,32.0,28.0,85,29.99,10.0,WNW,3.5,-,N/A,,Clear,300,2012-11-01 09:55:00
5:15 AM,32.0,28.2,86,29.99,10.0,Calm,Calm,-,N/A,,Clear,0,2012-11-01 10:15:00
5:35 AM,31.3,27.3,85,29.99,10.0,Calm,Calm,-,N/A,,Clear,0,2012-11-01 10:35:00
5:55 AM,31.3,27.5,86,30.00,10.0,Calm,Calm,-,N/A,,Clear,0,2012-11-01 10:55:00
6:35 AM,32.0,27.7,84,29.99,10.0,Calm,Calm,-,N/A,,Clear,0,2012-11-01 11:35:00
6:55 AM,31.6,26.8,82,29.99,10.0,Calm,Calm,-,N/A,,Clear,0,2012-11-01 11:55:00
7:15 AM,30.0,27.0,88,30.00,10.0,Calm,Calm,-,N/A,,Clear,0,2012-11-01 12:15:00
7:35 AM,29.7,27.1,90,30.01,10.0,Calm,Calm,-,N/A,,Clear,0,2012-11-01 12:35:00
7:55 AM,30.6,27.7,89,30.03,10.0,Calm,Calm,-,N/A,,Clear,0,2012-11-01 12:55:00
8:15 AM,32.4,30.0,91,30.03,10.0,Calm,Calm,-,N/A,,Clear,0,2012-11-01 13:15:00
8:35 AM,38.3,33.6,83,30.03,10.0,West,3.5,-,N/A,,Clear,270,2012-11-01 13:35:00
8:55 AM,42.3,32.0,67,30.03,10.0,Calm,Calm,-,N/A,,Clear,0,2012-11-01 13:55:00
9:15 AM,43.2,31.5,63,30.03,10.0,WSW,3.5,-,N/A,,Clear,250,2012-11-01 14:15:00
9:35 AM,44.8,31.3,59,30.03,10.0,West,4.6,-,N/A,,Clear,260,2012-11-01 14:35:00
9:55 AM,45.9,30.6,55,30.03,10.0,WSW,4.6,-,N/A,,Clear,240,2012-11-01 14:55:00
10:15 AM,48.4,31.6,52,30.03,10.0,West,3.5,-,N/A,,Clear,280,2012-11-01 15:15:00
10:35 AM,50.2,30.0,46,30.03,10.0,Calm,Calm,-,N/A,,Clear,0,2012-11-01 15:35:00
10:55 AM,51.8,27.5,39,30.04,10.0,West,3.5,-,N/A,,Clear,260,2012-11-01 15:55:00
11:15 AM,53.8,27.7,37,30.04,10.0,SW,4.6,-,N/A,,Clear,230,2012-11-01 16:15:00
11:35 AM,54.1,26.6,35,30.03,10.0,WSW,6.9,-,N/A,,Clear,250,2012-11-01 16:35:00
11:55 AM,56.5,27.1,32,30.03,10.0,West,5.8,-,N/A,,Clear,260,2012-11-01 16:55:00
12:15 PM,57.2,28.6,34,30.01,10.0,WSW,4.6,-,N/A,,Clear,240,2012-11-01 17:15:00
12:35 PM,57.9,28.4,32,30.00,10.0,SSW,6.9,-,N/A,,Clear,210,2012-11-01 17:35:00
12:55 PM,58.5,28.9,33,30.00,10.0,WSW,8.1,-,N/A,,Clear,250,2012-11-01 17:55:00
1:15 PM,59.4,29.8,33,29.99,10.0,West,8.1,-,N/A,,Clear,270,2012-11-01 18:15:00
1:35 PM,60.1,30.0,32,29.98,10.0,SW,9.2,-,N/A,,Scattered Clouds,230,2012-11-01 18:35:00
1:55 PM,60.8,31.3,33,29.98,10.0,West,6.9,-,N/A,,Scattered Clouds,260,2012-11-01 18:55:00
2:15 PM,60.8,30.7,32,29.97,10.0,West,6.9,-,N/A,,Scattered Clouds,270,2012-11-01 19:15:00
2:35 PM,60.6,30.7,32,29.96,10.0,WSW,9.2,-,N/A,,Scattered Clouds,240,2012-11-01 19:35:00
2:55 PM,61.0,30.6,32,29.96,10.0,WSW,5.8,-,N/A,,Scattered Clouds,240,2012-11-01 19:55:00
3:15 PM,60.3,30.7,33,29.96,10.0,SW,5.8,-,N/A,,Scattered Clouds,220,2012-11-01 20:15:00
3:35 PM,60.3,31.5,34,29.95,10.0,WSW,4.6,-,N/A,,Mostly Cloudy,240,2012-11-01 20:35:00
3:55 PM,59.9,31.5,34,29.95,10.0,WSW,6.9,-,N/A,,Mostly Cloudy,240,2012-11-01 20:55:00
4:15 PM,59.9,32.2,35,29.94,10.0,SSW,5.8,-,N/A,,Mostly Cloudy,210,2012-11-01 21:15:00
4:35 PM,59.7,32.2,35,29.94,10.0,SW,5.8,-,N/A,,Overcast,230,2012-11-01 21:35:00
4:55 PM,59.5,32.5,36,29.94,10.0,SW,8.1,-,N/A,,Overcast,230,2012-11-01 21:55:00
5:15 PM,59.0,32.7,37,29.93,10.0,SW,6.9,-,N/A,,Overcast,220,2012-11-01 22:15:00
5:35 PM,58.5,32.2,37,29.93,10.0,SSW,5.8,-,N/A,,Overcast,210,2012-11-01 22:35:00
5:55 PM,57.4,34.0,41,29.92,10.0,SW,3.5,-,N/A,,Overcast,220,2012-11-01 22:55:00
6:15 PM,56.8,34.3,43,29.92,10.0,SSW,3.5,-,N/A,,Overcast,200,2012-11-01 23:15:00
6:35 PM,55.9,34.9,45,29.93,10.0,SSW,5.8,-,N/A,,Overcast,210,2012-11-01 23:35:00
6:55 PM,57.2,34.2,42,29.93,10.0,SW,4.6,-,N/A,,Overcast,220,2012-11-01 23:55:00
7:15 PM,56.7,35.1,44,29.93,10.0,SSW,5.8,-,N/A,,Overcast,210,2012-11-02 00:15:00
7:35 PM,56.7,34.9,44,29.92,10.0,SSW,4.6,-,N/A,,Overcast,210,2012-11-02 00:35:00
7:55 PM,54.9,35.4,48,29.92,10.0,SSW,4.6,-,N/A,,Mostly Cloudy,200,2012-11-02 00:55:00
8:15 PM,53.6,34.9,49,29.91,10.0,South,5.8,-,N/A,,Scattered Clouds,190,2012-11-02 01:15:00
8:55 PM,52.9,34.7,50,29.91,10.0,SSW,5.8,-,N/A,,Clear,200,2012-11-02 01:55:00
9:15 PM,53.4,34.0,48,29.92,10.0,Calm,Calm,-,N/A,,Clear,0,2012-11-02 02:15:00
9:35 PM,51.8,34.3,51,29.92,10.0,Calm,Calm,-,N/A,,Clear,0,2012-11-02 02:35:00
9:55 PM,48.2,35.4,61,29.93,10.0,Calm,Calm,-,N/A,,Clear,0,2012-11-02 02:55:00
10:15 PM,47.1,35.2,63,29.92,10.0,Calm,Calm,-,N/A,,Clear,0,2012-11-02 03:15:00
10:35 PM,45.1,35.8,70,29.91,10.0,Calm,Calm,-,N/A,,Clear,0,2012-11-02 03:35:00
10:55 PM,45.0,36.1,71,29.91,10.0,South,3.5,-,N/A,,Clear,180,2012-11-02 03:55:00
11:15 PM,44.1,36.0,73,29.91,10.0,Calm,Calm,-,N/A,,Clear,0,2012-11-02 04:15:00
11:35 PM,43.7,36.5,76,29.90,10.0,Calm,Calm,-,N/A,,Clear,0,2012-11-02 04:35:00
11:55 PM,43.5,36.5,76,29.90,10.0,Calm,Calm,-,N/A,,Clear,0,2012-11-02 04:55:00